[[{"header":{"parameterUnit":"m.s-1","parameterCategory":1,"la1":30.2991,"la2":30.254,"lo1":-89.0895,"lo2":-89.0444,"dy":0.0017,"dx":0.0017,"nx":28,"ny":28,"refTime":"2025-08-16T09:00:00:Z","depth":0,"parameterNumber":2,"parameterNumberName":"U-component_of_WINDS"},"data":[0,0,0,0,0,0,0,0,0,0,0,0,0,0,0,0,0,0,0,0,0,0,0,0,0,0,0,0,0,0,0,0,0,0,0,0,0,0,0,0,0,0,0,0,0,0,0,0,0,0,0,0,0,0,0,0,0,0,0.2122,0.2122,0,0.2063,0.2062,0.2062,0.2014,0.2013,0.2013,0.2012,0.1951,0.195,0.1949,0,0,0,0,0,0,0,0,0,0,0,0,0,0.2194,0.2193,0.2122,0.2121,0.2121,0.2063,0.2062,0.2061,0.2014,0.2013,0.2012,0.2012,0.1951,0.195,0.1948,0,0,0,0,0,0,0,0,0,0,0,0,0,0.2151,0.2192,0.2122,0.209,0.2086,0.2063,0.2062,0.2061,0.2014,0.2013,0.2012,0.2012,0.1952,0.195,0.1948,0.1952,0,0,0.1943,0.1942,0,0,0,0,0,0,0,0,0.2154,0.2149,0.2095,0.2092,0.2088,0.2045,0.2065,0.2025,0.2014,0.2041,0.2012,0.2011,0.1983,0.1978,0.1969,0.1949,0.1947,0.1943,0.1942,0.1941,0.194,0,0,0,0,0,0,0,0.2157,0.2151,0.2099,0.2095,0.209,0.2078,0.2071,0.2057,0.2017,0.2039,0.2035,0.2029,0.1981,0.1971,0.1967,0.1946,0.1943,0.1941,0.194,0.1939,0.1927,0.1928,0,0,0,0,0,0,0.2165,0.2154,0.2101,0.2097,0.212,0.2078,0.207,0.206,0.2017,0.201,0.203,0.2027,0.1974,0.1969,0.1965,0.1967,0.1941,0.1939,0.1938,0.1926,0.1927,0.1928,0,0,0,0,0,0,0.2167,0.2161,0.2103,0.2124,0.2116,0.2077,0.2066,0.2059,0.2049,0.201,0.2002,0.2027,0.1973,0.1967,0.1956,0.1964,0.1938,0.1937,0.1925,0.1926,0.1927,0.1971,0,0,0,0,0,0,0.2169,0.2161,0.2163,0.2125,0.2115,0.2095,0.2066,0.2058,0.2046,0.2042,0.2005,0.1999,0.1972,0.1959,0.1954,0.1961,0.1936,0.1924,0.1926,0.1927,0.1969,0.1973,0.1978,0,0,0,0,0,0.2171,0.2177,0.2163,0.2157,0.2116,0.2096,0.209,0.206,0.2047,0.2048,0.2023,0.2,0.1964,0.1958,0.1952,0.1959,0.1924,0.1925,0.1927,0.1967,0.1972,0.1977,0,0,0,0,0,0,0.2216,0.2171,0.2155,0.2149,0.2127,0.2088,0.2088,0.2067,0.2048,0.2045,0.2008,0.2,0.1993,0.1975,0.1969,0.1961,0.1941,0.1941,0.1973,0.1978,0.1982,0.1987,0.1934,0,0,0,0,0,0.2226,0.2213,0.2175,0.2173,0.2162,0.2127,0.2117,0.2096,0.2071,0.2062,0.2036,0.2013,0.1996,0.1986,0.1969,0.1966,0.1957,0.1968,0.1972,0.1976,0.1977,0.1974,0.1978,0.1933,0.1933,0.1933,0,0,0.2244,0.2218,0.2213,0.2181,0.2161,0.2149,0.212,0.2108,0.2099,0.206,0.2048,0.2028,0.2,0.1993,0.1988,0.1977,0.1987,0.1978,0.1981,0.198,0.1976,0.1981,0.1984,0.1934,0.1934,0.1934,0,0,0.2273,0.2252,0.2248,0.2229,0.2199,0.2176,0.2175,0.214,0.2125,0.2113,0.2083,0.2072,0.2044,0.2025,0.2012,0.2034,0.2012,0.2029,0.2052,0.205,0.2054,0.2057,0.2065,0.2068,0.203,0.203,0.203,0,0.23,0.2281,0.2248,0.2239,0.2226,0.219,0.2186,0.2169,0.2136,0.2127,0.2116,0.208,0.2059,0.2047,0.2053,0.2043,0.2041,0.2033,0.2056,0.2058,0.2061,0.2068,0.2071,0.2032,0.2032,0.2032,0.2032,0,0.2315,0.2303,0.2303,0.2272,0.2259,0.2252,0.2219,0.221,0.219,0.2168,0.2155,0.2128,0.2105,0.2101,0.2081,0.2086,0.208,0.2063,0.2042,0.2068,0.2074,0.2076,0.2036,0.2035,0.2034,0.2034,0,0,0.237,0.2322,0.2322,0.2308,0.2273,0.2263,0.2254,0.2232,0.2225,0.2203,0.2195,0.2173,0.2156,0.2142,0.2119,0.2117,0.2137,0.21,0.2099,0.2108,0.2141,0.2155,0.2159,0.2122,0.2122,0.2123,0.2144,0,0.2393,0.2376,0.2347,0.234,0.2328,0.2294,0.2287,0.2265,0.2244,0.2231,0.2208,0.2193,0.2172,0.2163,0.216,0.2135,0.2143,0.2133,0.2114,0.2114,0.2123,0.2162,0.2176,0.2197,0.2146,0.2146,0.2147,0,0.2417,0.2398,0.2389,0.2356,0.235,0.2344,0.2321,0.2309,0.2283,0.2268,0.2252,0.2228,0.2217,0.2198,0.2183,0.2177,0.2168,0.2155,0.2155,0.2152,0.2132,0.216,0.2203,0.2207,0.215,0.215,0.2149,0,0.2458,0.243,0.2421,0.241,0.237,0.2367,0.2351,0.2324,0.2313,0.2293,0.2285,0.2264,0.2253,0.2237,0.2208,0.2197,0.2196,0.2175,0.2184,0.2184,0.2185,0.2185,0.2227,0.2179,0.2179,0.2179,0.2179,0,0.2487,0.2483,0.2439,0.2434,0.2429,0.2395,0.2391,0.2372,0.2348,0.2339,0.2308,0.23,0.2262,0.2249,0.2226,0.2217,0.2212,0.22,0.2194,0.2203,0.2204,0.2196,0.2194,0.218,0.2179,0.2179,0.2179,0,0.2532,0.2502,0.2491,0.2454,0.2445,0.2443,0.2412,0.2406,0.2383,0.2372,0.2367,0.2332,0.2315,0.2284,0.2259,0.2243,0.224,0.2229,0.2249,0.2245,0.2256,0.2255,0.2294,0.2297,0.2247,0.2247,0.2248,0,0.2552,0.2548,0.2512,0.2503,0.2488,0.2475,0.2463,0.243,0.2419,0.239,0.2387,0.2368,0.2351,0.2326,0.2298,0.2279,0.2267,0.2282,0.2264,0.2273,0.2268,0.2269,0.2268,0.2287,0.2287,0.2288,0.2288,0,0.2591,0.2577,0.2561,0.2541,0.2528,0.251,0.249,0.2485,0.2447,0.2437,0.2419,0.2406,0.2381,0.2362,0.2339,0.2321,0.2299,0.2294,0.2295,0.2304,0.2316,0.231,0.226,0.2294,0.2293,0.2293,0.2292,0.2292,0.2624,0.262,0.2594,0.2577,0.2559,0.2542,0.2534,0.2511,0.2496,0.2473,0.2454,0.2439,0.2413,0.238,0.2364,0.2351,0.234,0.2342,0.2342,0.2343,0.2347,0.2318,0.2346,0.2346,0.2346,0.2346,0.2346,0,0.2663,0.2644,0.2629,0.2603,0.2591,0.2571,0.2548,0.2539,0.2526,0.2504,0.2488,0.2468,0.245,0.2421,0.2401,0.2397,0.2386,0.2392,0.2392,0.2389,0.2357,0.2359,0.2401,0.2401,0.2401,0.2401,0.2401,0.2401,0.2681,0.2672,0.2655,0.2637,0.2618,0.2603,0.2592,0.2576,0.2558,0.2538,0.2523,0.2504,0.248,0.2458,0.244,0.2432,0.2426,0.2436,0.2425,0.2396,0.2391,0.2386,0.2387,0.2435,0.2435,0.2458,0.2458,0.2458]},{"header":{"parameterUnit":"m.s-1","parameterCategory":1,"la1":30.2991,"la2":30.254,"lo1":-89.0895,"lo2":-89.0444,"dy":0.0017,"dx":0.0017,"nx":28,"ny":28,"refTime":"2025-08-16T09:00:00:Z","depth":0,"parameterNumber":3,"parameterNumberName":"V-component_of_WINDS"},"data":[0,0,0,0,0,0,0,0,0,0,0,0,0,0,0,0,0,0,0,0,0,0,0,0,0,0,0,0,0,0,0,0,0,0,0,0,0,0,0,0,0,0,0,0,0,0,0,0,0,0,0,0,0,0,0,0,0,0,-1.1596,-1.1597,0,-1.1635,-1.1635,-1.1636,-1.164,-1.1639,-1.1639,-1.1638,-1.1676,-1.1677,-1.1679,0,0,0,0,0,0,0,0,0,0,0,0,0,-1.1525,-1.1526,-1.1596,-1.1597,-1.1597,-1.1635,-1.1635,-1.1636,-1.164,-1.1639,-1.1639,-1.1638,-1.1676,-1.1677,-1.1679,0,0,0,0,0,0,0,0,0,0,0,0,0,-1.1559,-1.1527,-1.1596,-1.1604,-1.1605,-1.1635,-1.1635,-1.1636,-1.164,-1.1639,-1.1638,-1.1638,-1.1675,-1.1677,-1.1679,-1.1704,0,0,-1.1685,-1.1686,0,0,0,0,0,0,0,0,-1.1557,-1.1562,-1.1602,-1.1603,-1.1604,-1.1632,-1.1624,-1.1659,-1.164,-1.1626,-1.1638,-1.1638,-1.1662,-1.1665,-1.1673,-1.1706,-1.1707,-1.1686,-1.1687,-1.1688,-1.1688,0,0,0,0,0,0,0,-1.1555,-1.156,-1.1612,-1.1603,-1.1604,-1.1605,-1.1609,-1.1631,-1.1647,-1.1627,-1.1628,-1.1632,-1.1662,-1.1671,-1.1674,-1.1708,-1.1686,-1.1687,-1.1689,-1.169,-1.1764,-1.1764,0,0,0,0,0,0,-1.1551,-1.1558,-1.161,-1.1613,-1.1579,-1.1607,-1.1611,-1.1624,-1.1647,-1.165,-1.1633,-1.1633,-1.1668,-1.1672,-1.1676,-1.1707,-1.1688,-1.169,-1.1691,-1.1763,-1.1764,-1.1764,0,0,0,0,0,0,-1.1549,-1.1556,-1.1609,-1.1585,-1.1592,-1.1608,-1.1622,-1.1625,-1.1634,-1.1651,-1.1654,-1.1639,-1.1668,-1.1673,-1.1697,-1.1709,-1.1691,-1.1693,-1.1762,-1.1763,-1.1764,-1.177,0,0,0,0,0,0,-1.1547,-1.1555,-1.1565,-1.1586,-1.1594,-1.163,-1.1623,-1.1626,-1.1638,-1.1637,-1.1658,-1.166,-1.1668,-1.1694,-1.1699,-1.1711,-1.1694,-1.1761,-1.1762,-1.1764,-1.1769,-1.1771,-1.1773,0,0,0,0,0,-1.1545,-1.1564,-1.1565,-1.1572,-1.1606,-1.1631,-1.1635,-1.1644,-1.1638,-1.1649,-1.166,-1.166,-1.1706,-1.1697,-1.1702,-1.1715,-1.176,-1.1762,-1.1764,-1.1768,-1.1771,-1.1773,0,0,0,0,0,0,-1.1544,-1.1567,-1.1569,-1.1595,-1.1611,-1.1631,-1.1644,-1.1646,-1.1663,-1.1662,-1.1672,-1.1676,-1.1701,-1.171,-1.1699,-1.1741,-1.1733,-1.1736,-1.1734,-1.1737,-1.1739,-1.1737,-1.1696,0,0,0,0,0,-1.1547,-1.1565,-1.1584,-1.1606,-1.1614,-1.1628,-1.1639,-1.1644,-1.1661,-1.1667,-1.168,-1.1695,-1.1714,-1.1726,-1.1743,-1.177,-1.1775,-1.1781,-1.1784,-1.1785,-1.1788,-1.1804,-1.1807,-1.177,-1.177,-1.177,0,0,-1.1553,-1.1568,-1.1579,-1.1606,-1.1619,-1.1638,-1.1633,-1.1653,-1.1667,-1.167,-1.1695,-1.1704,-1.1722,-1.1749,-1.1761,-1.1757,-1.1799,-1.1787,-1.1788,-1.179,-1.1806,-1.181,-1.1813,-1.1771,-1.1771,-1.1771,0,0,-1.1574,-1.1587,-1.1607,-1.162,-1.164,-1.1649,-1.1654,-1.1674,-1.1681,-1.1706,-1.1709,-1.1725,-1.1756,-1.177,-1.178,-1.1807,-1.1809,-1.1813,-1.1824,-1.184,-1.1843,-1.1845,-1.1856,-1.186,-1.1815,-1.1815,-1.1815,0,-1.1579,-1.1608,-1.1617,-1.1637,-1.165,-1.1654,-1.1675,-1.1687,-1.1711,-1.1719,-1.1715,-1.1755,-1.1767,-1.1797,-1.1804,-1.1812,-1.1818,-1.1811,-1.1841,-1.1844,-1.1847,-1.1857,-1.1861,-1.1815,-1.1815,-1.1815,-1.1815,0,-1.1614,-1.1634,-1.1648,-1.1672,-1.1686,-1.1706,-1.1719,-1.1731,-1.1736,-1.1745,-1.1771,-1.1786,-1.1807,-1.1814,-1.1818,-1.1845,-1.1842,-1.184,-1.1832,-1.1851,-1.1861,-1.1865,-1.1816,-1.1816,-1.1816,-1.1816,0,0,-1.1635,-1.1665,-1.167,-1.1682,-1.1705,-1.172,-1.1741,-1.1763,-1.1774,-1.179,-1.1809,-1.1835,-1.1833,-1.1845,-1.185,-1.1864,-1.1886,-1.186,-1.186,-1.1865,-1.1918,-1.1921,-1.1925,-1.1886,-1.1887,-1.1888,-1.1917,0,-1.166,-1.1698,-1.1707,-1.1739,-1.1759,-1.1763,-1.1781,-1.1797,-1.1806,-1.1824,-1.1834,-1.1853,-1.1848,-1.1856,-1.1869,-1.188,-1.1897,-1.1878,-1.1904,-1.1905,-1.1901,-1.193,-1.1933,-1.196,-1.1921,-1.1921,-1.1922,0,-1.1694,-1.1713,-1.1747,-1.1769,-1.1777,-1.1793,-1.1814,-1.1831,-1.1849,-1.1855,-1.1869,-1.1873,-1.1895,-1.1885,-1.1916,-1.1903,-1.1914,-1.1921,-1.1922,-1.1926,-1.1915,-1.1936,-1.1969,-1.1973,-1.1928,-1.1927,-1.1927,0,-1.1708,-1.1742,-1.1767,-1.1777,-1.1802,-1.1813,-1.1824,-1.1842,-1.1854,-1.1873,-1.1881,-1.1901,-1.1912,-1.1928,-1.1937,-1.1929,-1.1967,-1.1958,-1.1973,-1.1973,-1.1982,-1.1982,-1.2018,-1.1987,-1.1987,-1.1987,-1.1987,0,-1.1736,-1.1757,-1.1774,-1.179,-1.1814,-1.1824,-1.1848,-1.1858,-1.1874,-1.1892,-1.1896,-1.1912,-1.1923,-1.1942,-1.1949,-1.1974,-1.1978,-1.1984,-1.1986,-1.1984,-1.1984,-1.1992,-1.1991,-1.1988,-1.1987,-1.1987,-1.1987,0,-1.1756,-1.1768,-1.1796,-1.1818,-1.1824,-1.1841,-1.1859,-1.1875,-1.1884,-1.1907,-1.1913,-1.1928,-1.195,-1.1961,-1.1987,-1.1992,-1.202,-1.202,-1.2015,-1.2016,-1.2031,-1.203,-1.2075,-1.2082,-1.2045,-1.2045,-1.2045,0,-1.1773,-1.179,-1.1814,-1.1827,-1.1838,-1.1858,-1.1872,-1.1882,-1.1896,-1.1918,-1.1931,-1.1953,-1.1971,-1.2006,-1.2019,-1.2039,-1.2041,-1.2055,-1.2044,-1.2042,-1.2043,-1.2042,-1.2044,-1.2058,-1.2058,-1.2058,-1.2058,0,-1.1803,-1.1809,-1.1828,-1.185,-1.1867,-1.1884,-1.1902,-1.1912,-1.1925,-1.194,-1.1963,-1.1977,-1.2005,-1.2027,-1.2049,-1.2059,-1.2062,-1.2062,-1.2067,-1.2066,-1.2063,-1.2066,-1.2022,-1.2061,-1.2061,-1.2061,-1.206,-1.206,-1.1823,-1.1839,-1.1859,-1.1881,-1.1895,-1.1912,-1.1928,-1.194,-1.1959,-1.1983,-1.1988,-1.2012,-1.203,-1.206,-1.2071,-1.209,-1.2087,-1.2094,-1.2096,-1.2098,-1.2099,-1.2059,-1.2094,-1.2094,-1.2094,-1.2094,-1.2094,0,-1.1855,-1.1868,-1.1888,-1.1913,-1.193,-1.1931,-1.1951,-1.1965,-1.1987,-1.2004,-1.2022,-1.2049,-1.207,-1.2085,-1.2107,-1.212,-1.2121,-1.2125,-1.2125,-1.2128,-1.21,-1.2094,-1.2124,-1.2124,-1.2124,-1.2124,-1.2124,-1.2124,-1.1873,-1.19,-1.1908,-1.1943,-1.1955,-1.198,-1.1991,-1.2007,-1.202,-1.205,-1.2069,-1.2079,-1.2095,-1.2118,-1.2138,-1.2142,-1.215,-1.2155,-1.2159,-1.2133,-1.213,-1.2127,-1.2121,-1.2156,-1.2156,-1.2185,-1.2185,-1.2186]}]]